Location: Springfield
(37.2150°N, 93.2980°W)
Time: 00:02:15
(UTC-06:00)

Tiangong - Visible Passes

Search period start: 15 January 2026 00:00
Search period end: 25 January 2026 00:00
Orbit: 378 x 394 km, 41.5° (Epoch: 14 January)

Date Brightness Start Highest point End Pass type
(mag) Time Alt. Az. Time Alt. Az. Time Alt. Az.
15 Jan 0.2 06:38:35 10° SSW 06:41:18 26° SSE 06:44:02 10° E visible
16 Jan 0.8 05:40:24 10° S 05:42:16 15° SE 05:44:09 10° ESE visible
17 Jan -1.2 06:16:39 11° SW 06:19:36 48° SSE 06:22:42 10° ENE visible
18 Jan -0.1 05:20:53 26° SE 05:20:53 26° SE 05:23:13 10° E visible
18 Jan -2.0 06:54:02 10° W 06:57:12 62° NNW 07:00:22 10° ENE visible
19 Jan -2.2 05:57:09 49° WSW 05:57:53 86° SSE 06:01:06 10° ENE visible
20 Jan 1.0 05:00:59 16° E 05:00:59 16° E 05:01:44 10° ENE visible
20 Jan -1.6 06:33:14 16° W 06:35:33 44° N 06:38:38 10° ENE visible
21 Jan -1.2 05:36:55 43° NE 05:36:55 43° NE 05:39:19 10° ENE visible
22 Jan -1.3 06:12:43 27° NW 06:13:51 37° N 06:16:52 10° ENE visible
23 Jan 0.3 05:16:13 20° NE 05:16:13 20° NE 05:17:27 10° ENE visible
23 Jan -1.3 06:48:34 10° WNW 06:51:36 39° N 06:54:37 10° ENE visible
24 Jan -1.2 05:51:53 35° N 05:52:05 35° N 05:55:03 10° ENE visible
